Погода в Тлемсене

Алжир     34°53′00″N   1°19′28″W
темп.,
°C
ветер,
м/с
пор.,
м/с
влажн.,
%
обл.,
%
осадки,
мм/ч
давл.,
гПа
погр.,
м
13 апреля, вт
вт1301:00+15юв228399 0.1 102248
04:00+12зсз229289 0.0 102111
07:00+12в1191100 0.0 102112
10:00+18ссв2262100 0.0 1020574
13:00+22ссз4348100 0.0 10191068
16:00+22ссз545394 0.0 1017828
19:00+17ссз2272100 0.0 1017302
22:00+14з0086100 0.0 102014
14 апреля, ср
ср1401:00+15ссв2283100 0.0 101821
04:00+13ссз1190100 0.0 101610
07:00+13з2290100 0.0 101675
10:00+17сз3271100 0.1 1016374
13:00+15сз3381100 0.3 1016525
16:00+17ссз3375100 0.1 1013573
19:00+16св2381100 0.4 1013284
22:00+13зсз2297100 0.1 101464
15 апреля, чт
чт1501:00+13зсз3395100 0.1 1013414
04:00+12с1296100 0.1 1011240
07:00+12сз1195100 0.2 1010187
10:00+13з1293100 0.1 1010400
13:00+15з3583100 0.3 1009681
16:00+16зюз677993 0.2 1007730
19:00
22:00+12ссз111399100 6.7 1011696
16 апреля, пт
пт1601:00+11ссз111499100 12.6 1013785
04:00+10с71199100 5.3 1014761
07:00+10с5997100 9.3 1015657
10:00+10ссв3590100 0.6 1017510
13:00+15с566153 1.6 10161441
16:00+16ссз55494 0.1 10151533
19:00+13ссз23663 0.6 1016105
22:00+11ююз32570 0.0 101612
17 апреля, сб
сб1701:00+11ююз33526 0.0 101414
04:00+11з3363100 0.0 101321
07:00+11зсз2278100 0.3 101496
10:00+10ссз2395100 1.4 1016297
13:00+9всв4485100 2.1 1018440
16:00+12всв136477 0.0 1018803
19:00+12с22551 0.0 101940
22:00+8ююв22600 0.0 102210